Regional Weather Roundup
Issued by NWS Green Bay, WI

Home | Current Version | Previous Version | Text Only | Print | Product List | Glossary On
Versions: 1 2 3 4 5 6 7 8 9 10 11 12 13 14 15 16 17 18 19 20 21 22 23 24 25 26 27 28 29 30 31 32 33 34 35 36 37 38 39 40 41 42 43 44 45 46 47 48 49 50
000
ASUS43 KGRB 040411
RWRGRB

NORTH-CENTRAL AND NORTHEAST WISCONSIN REGIONAL WEATHER ROUNDUP
NATIONAL WEATHER SERVICE GREEN BAY WI
1100 PM CDT THU SEP 03 2015

WIZ005-009-010>012-018-019-040500-
NORTH CENTRAL WISCONSIN

CITY           SKY/WX    TMP DP  RH WIND       PRES   REMARKS
IRONWOOD       CLEAR     63  61  94 E5        29.98S
MANITOWISH WTR MOCLDY    59  59 100 CALM      30.02S FOG
ARBOR VITAE    CLEAR     62  61  95 CALM      30.03S
EAGLE RIVER    CLEAR     65  65  99 E3        30.03S
LAND O LAKES   CLEAR     62  62 100 SE3       30.05R
RHINELANDER    FOG       58  57  97 CALM      30.04R VSB 1/2
PHILLIPS       CLEAR     64  64  99 CALM      30.01R
ANTIGO         CLEAR     63  62  95 CALM      30.03R
TOMAHAWK       FOG       58  57  96 CALM      30.03R VSB 3/4
MERRILL        FOG       58  58 100 CALM      30.02R VSB 1/4
$$

WIZ013-073-040500-
NORTHEAST WISCONSIN

CITY           SKY/WX    TMP DP  RH WIND       PRES   REMARKS
IRON MOUNTAIN  CLEAR     62  58  86 CALM      30.01R
MARINETTE      CLEAR     64  61  88 N3        29.97R
OCONTO         CLEAR     61  61 100 CALM      29.97S
$$

WIZ017-030-035>037-045-040500-
CENTRAL WISCONSIN

CITY           SKY/WX    TMP DP  RH WIND       PRES   REMARKS
MEDFORD        CLEAR     62  62 100 E3        30.01S FOG
WAUSAU         CLEAR     64  63  96 CALM      29.99R
MOSINEE        CLEAR     64  64 100 CALM      30.01S
MARSHFIELD     CLEAR     66  62  87 E5        30.00R
WISC RAPIDS    CLEAR     64  62  93 CALM      30.00R FOG
STEVENS POINT  CLEAR     61  60  97 CALM      30.00S
WAUPACA        CLEAR     65  64  97 CALM      29.98S FOG
SHAWANO        NOT AVBL
CLINTONVILLE   FOG       63  63 100 NE3       29.99R VSB 1/2
WAUTOMA        CLEAR     63  63 100 CALM      29.98S
$$

WIZ038-039-048-051-040500-
FOX VALLEY

CITY           SKY/WX    TMP DP  RH WIND       PRES   REMARKS
NWS GREEN BAY  CLEAR     65  63  93 N6        29.97S
APPLETON       PTCLDY    66  64  94 N7        29.97S
OSHKOSH        CLEAR     66  63  90 CALM      29.97R
FOND DU LAC    CLEAR     65  64  97 NW5       29.97S
$$

WIZ022-050-052-040500-
EAST CENTRAL WISCONSIN

CITY           SKY/WX    TMP DP  RH WIND       PRES   REMARKS
EPHRAIM        FAIR      66  64  94 E3        29.96S
STURGEON BAY   PTCLDY    64  63  94 NE3       29.99S
MANITOWOC      CLEAR     63  62  97 MISG      29.96F
SHEBOYGAN      CLEAR     64  63  96 N3        29.96S
$$

LMZ563-521-522-541>543-040500-
LAKESHORE

STATION/POSITION TIME  TEMP    WIND        PRES    VSBY  WAVE
                       AIR SEA DIR/SP/G                  HT/PER
                 (UTC) (F)     (DEG/KT/KT) (MB)    (MI)  (FT/S)
SHEBOYGAN LKSHOR 0400   65     340/  9/  9 1014.4S
KEWAUNEE LKSHORE 0300   64     310/  4/  5 1013.7R
ALGOMA MARINA    0329          330/  5/  6   N/A
NORTHPORT PIER   0300   69      40/ 10/ 13 1014.9R
N MID LAKE BUOY  0350   68 66   40/ 10/ 10 1014.2S         2/ 3
S GREEN BAY BUOY 0400   68 66   40/ 10/ 14 1016.1
SISTER BAY LKSHO 0311   68      30/  5/  9   N/A
CHAMBERS ISLAND  0300   68      40/ 11/ 14 1014.9R
MENOMINEE LKSHOR 0300   67     330/  7/  7 1013.6R
$$



USA.gov is the U.S. government's official web portal to all federal, state and local government web resources and services.